METEOR M2-3 DEB, 60448

Orbit data source: Space-Track

METEOR M2-3 DEB, 60448 is space debris in SSO originally from a Commonwealth of Independent States-origin launch on Tue, 27 Jun 2023 UTC launched from the Vostochny Cosmodrome (VOSTO). Debris objects in space refer to the collection of defunct objects orbiting the Earth. Examples of debris include non-operational satellites, rocket bodies, and fragments generated from explosions, collisions, or faulty payload assembly.

Loading next visibility...
Identifier
60448, 2023-091BC
Orbit
SSO
Country
Flag of CISCIS
Related business
Manufacturer
VNIIEM
Mission
Spacecraft
Bus & Motor
RESURS-O, Unknown motor
Mass
Unknown
Launch date (UTC)
2023-06-27 (2 years ago)
Launch vehicle
Unknown
Launch site
Vostochny Cosmodrome (VOSTO)
Object type
Payload
Rocket body
Debris
Shape & HBR
Unknown shape, 0.1 m
Radar Cross Section
Small (<0.1 m²)

Expand to show TLE details & history
Last TLE update: 14 hours ago

TLE from 14 hours ago
0 METEOR M2-3 DEB
1 60448U 23091BC  25304.68895625  .00000473  00000-0  22158-3 0  9995
2 60448  98.6457 359.4579 0005145 109.2651 250.9085 14.24837872 86283
Epoch: 2025-10-31T16:32Z
TLE epoch observation values (Epoch: 2025-10-31T16:32:05.820Z)
Latitude
-0.00008°
Longitude
71.20388°
Altitude
813.172 km
Speed
7.446 km/s
True Right ascension
23h 57m 49s
True Declination
0° 00' 00"
Sunlit
Object was in full shadow at epoch
Visualization orbit readout
Latitude
Unknown
Longitude
Unknown
Altitude
Unknown
Speed
Unknown
Apparent Right ascension
Unknown
Apparent Declination
Unknown
Sunlit
N/A
Visualization observer readout
Local Sidereal Time
02:38:24
Azimuth
Unknown
Elevation
Unknown
Doppler factor
Unknown
Orbital elements
Apogee altitude
809.883 km
Perigee altitude
802.491 km
Semi-major axis
7,184.324 km
Eccentricity
0.00051
Inclination
98.6457°
RAAN
359.4579°
Arg. of periapsis
109.2651°
True anomaly
250.8528°
Mean anomaly
250.9085°
Eccentric anomaly
250.88065°
Mean motion
3.56422 °/min
Orbital period
101 mins
BSTAR
0.00022158
Loading maneuver chart data...
Computing Atmospheric mass density...
Loading historical data...
Loading historical data...
Loading historical data...
Loading historical data...
Loading historical data...
Loading historical data...
Loading historical data...

Documentation

Showing up to 5 results
|